Powrót do katalogu

FENGYUN 1C DEB

AktywnySSO
NORAD 31246·DEBRIS·🇨🇳 China

Wystrzelony May 10, 1999 z Taiyuan Satellite Launch Center

Loading…

Następne Przeloty (najbliższe 24 godziny)

TLE

Starzejące sięSource: Space-Track

Epoka: Sep 8, 2026, 08:36 UTC

1 31246U 99025BMC 26251.35886673  .00002392  00000-0  12802-2 0  9994
2 31246  98.7949  97.0281 0144120 304.6152  54.1496 14.08908293655474

Śledź FENGYUN 1C DEB w czasie rzeczywistym z AllMySat

Download on the App Store